Location: Mansfield Dam
(30.3944°N, 97.9097°W)
Time: 00:47:08
(UTC-06:00)

Daily predictions for brighter satellites

Satellite Brightness Start Highest point End
(mag) Time Altitude Azimuth Time Altitude Azimuth Time Altitude Azimuth
CZ-3 R/B 4.5 03:24:57 10° SW 03:50:37 31° S 03:58:40 10° ESE
CENTAUR R/B 4.5 03:57:18 20° NE 03:57:18 20° NE 03:59:24 10° NE
Cosmos 2278 Rocket 3.3 04:27:06 39° ENE 04:27:06 39° ENE 04:32:08 10° SE
SL-16 R/B 3.3 04:27:56 41° ESE 04:28:28 42° ESE 04:33:46 10° NE
Orbus 7S 4.4 04:51:16 60° SSE 04:51:16 60° SSE 05:01:10 10° E
Centaur AC-116 4.0 04:58:53 57° SSW 04:58:53 57° SSW 05:02:06 10° ESE
Feng Yun 1-1 Rocket 4.1 04:57:43 10° NNE 05:03:21 88° ESE 05:08:47 10° SSW
Cosmos 1680 Rocket 3.4 05:08:10 10° SSW 05:13:24 88° ESE 05:18:38 10° NNE
Cosmos 292 Rocket 3.6 05:19:26 10° SSW 05:24:16 86° WNW 05:29:08 10° NNE
USA 215 3.7 05:18:31 10° NNE 05:24:26 38° NW 05:24:53 38° NW
USA 116 4.4 05:24:13 10° S 05:26:51 41° SSW 05:26:51 41° SSW
Cosmos 2074 Rocket 4.2 05:22:08 10° S 05:28:24 75° E 05:34:39 10° N
Cosmos 2112 Rocket 3.8 05:26:43 10° SSW 05:31:56 72° WNW 05:37:08 10° N
Meteor 1-20 Rocket 4.2 05:27:38 10° S 05:33:16 80° E 05:38:49 10° N
SJ-6F 4.2 05:30:50 10° N 05:34:54 78° WNW 05:38:57 10° SSW
BREEZE-M DEB (TANK) 4.4 05:34:35 29° SW 05:35:22 31° SW 05:43:43 10° SSE
NOAA 6 3.9 05:30:43 10° N 05:35:50 79° WNW 05:40:58 10° SSW
Cosmos 972 Rocket 4.3 05:38:07 40° W 05:38:17 40° W 05:42:51 10° SSW
Meteor 1-14 Rocket 4.4 05:33:25 10° SSW 05:38:55 47° W 05:44:19 10° N
Cosmos 2184 Rocket 3.9 05:34:49 10° S 05:40:58 89° W 05:47:10 10° N
H-2A DEB 3.4 05:41:16 59° SW 05:41:33 65° S 05:44:16 10° E
Centaur D-1AR AC-39 3.4 05:41:51 19° WSW 05:44:02 24° SSW 05:47:05 10° SE
CENTAUR R/B 3.5 05:44:33 25° NW 05:44:33 25° NW 05:49:31 10° N
Abrixas rocket 3.8 05:44:11 10° SSW 05:47:17 35° SE 05:50:23 10° ENE
Thor Agena Rocket 4.1 05:46:24 10° SSW 05:50:53 33° W 05:52:02 29° WNW
Cosmos 2297 3.6 05:48:49 15° NNW 05:53:36 75° WSW 05:59:14 10° SSE
Okean 1 3.8 05:50:24 10° N 05:54:25 62° E 05:58:23 10° SSE
H-2A ROCKET BODY 4.3 05:52:41 19° W 05:59:01 54° S 06:48:14 10° SE
Cosmos 2151 Rocket 3.8 05:54:45 10° SSW 05:59:04 45° W 06:03:24 10° N
SKYMED 2 3.5 05:56:23 10° SSE 06:00:42 86° WSW 06:05:03 10° NNW
OAO 3 Copernicus 4.5 05:58:24 26° W 06:01:08 57° N 06:06:09 10° ENE
Tiangong 2 3.4 06:04:56 12° N 06:04:56 12° N 06:06:04 10° N
Cosmos 1238 Rocket 3.6 06:00:47 10° NNW 06:05:33 60° W 06:11:18 10° S
Cosmos 2278 Rocket 3.4 06:09:01 19° WNW 06:10:36 21° W 06:14:45 10° SSW
Cosmos 1602 3.9 06:07:03 10° S 06:10:58 80° E 06:14:56 10° N
SL-16 R/B 3.3 06:10:09 16° W 06:12:41 21° WNW 06:16:54 10° NNW
Timation 1 Rocket 4.5 06:09:31 10° NNW 06:15:21 54° WSW 06:21:10 10° S
DELTA 2 R/B (1) 3.6 06:11:25 18° WNW 06:15:40 80° NNE 06:21:14 10° ESE
Cosmos 1346 Rocket 2.7 06:12:32 10° N 06:16:26 88° W 06:20:22 10° S
CZ-4 R/B 2.6 06:13:44 10° NNE 06:17:31 44° E 06:21:14 10° S
Cosmos 1812 3.3 06:15:21 10° NNW 06:18:55 36° W 06:22:28 10° SSW
Cosmos 2056 Rocket 4.3 06:15:26 10° N 06:20:27 51° ENE 06:25:24 10° SSE
Lacrosse 5 1.8 06:17:20 10° SW 06:22:26 78° NW 06:27:34 10° NE
Cosmos 44 4.5 06:17:27 10° S 06:22:39 52° ESE 06:27:48 10° NE
SWIFT 4.4 06:22:16 10° SW 06:25:31 21° S 06:28:46 10° SE
IDEFIX/ARIANE 42P 3.8 06:22:41 10° NNE 06:27:41 46° E 06:32:39 10° S
SMAP 4.3 06:24:19 10° NNE 06:28:49 47° E 06:33:16 10° S
Cosmos 1536 Rocket 4.1 06:27:44 10° NNW 06:31:49 36° W 06:35:51 10° SSW
Cosmos 1536 2.8 06:28:39 10° S 06:32:36 87° E 06:36:37 10° N
Cosmos 1624 Rocket 4.2 06:29:29 10° NNW 06:34:47 81° ENE 06:40:06 10° SSE
Helios 1B rocket 4.1 06:33:37 10° SE 06:37:22 35° ENE 06:41:09 10° N
Cosmos 1371 Rocket 4.0 06:33:16 10° NNW 06:38:34 73° WSW 06:43:46 10° S
YAOGAN 1 3.4 06:34:29 10° NNE 06:38:46 57° E 06:43:00 10° S
Ariane Rocket 3.7 06:35:51 10° N 06:40:17 32° WNW 06:44:44 10° SW
IRS-1A Rocket 4.3 06:34:45 10° N 06:40:26 70° WNW 06:46:12 10° SSW
Meteor 1-28 Rocket 3.5 06:37:45 10° S 06:41:22 46° W 06:45:02 10° NNW
Okean 1 Rocket 3.5 06:40:20 10° SSW 06:44:29 39° W 06:48:36 10° NNW
USA 129 1.8 06:43:12 10° S 06:44:52 39° W 06:46:45 10° NNW
Cosmos 44 Rocket 3.7 06:42:39 10° SW 06:47:38 48° WNW 06:52:37 10° NNE
COSMO-SKYMED 1 3.9 06:45:33 10° SW 06:48:51 21° W 06:52:10 10° NW
